<?xml version="1.0" encoding="UTF-8" standalone="no" ?>
<gpx xmlns="http://www.topografix.com/GPX/1/1" creator="MapSource 6.11.6" version="1.1" xmlns:xsi="http://www.w3.org/2001/XMLSchema-instance" xsi:schemaLocation="http://www.topografix.com/GPX/1/1 http://www.topografix.com/GPX/1/1/gpx.xsd">

  <metadata>
    <link href="http://www.garmin.com">
      <text>Garmin International</text>
    </link>
    <time>2008-10-13T15:26:44Z</time>
    <bounds maxlat="50.356332" maxlon="6.775939" minlat="50.289919" minlon="6.671890"/>
  </metadata>

  <trk>
    <name>Etappe 08 Eifelsteig</name>
    <extensions>
      <gpxx:TrackExtension xmlns:gpxx="http://www.garmin.com/xmlschemas/GpxExtensions/v3" xmlns:xsi="http://www.w3.org/2001/XMLSchema-instance" xsi:schemaLocation="http://www.garmin.com/xmlschemas/GpxExtensions/v3 http://www.garmin.com/xmlschemas/GpxExtensions/v3/GpxExtensionsv3.xsd">
        <gpxx:DisplayColor>White</gpxx:DisplayColor>
      </gpxx:TrackExtension>
    </extensions>
    <trkseg>
      <trkpt lat="50.355976" lon="6.678406">
        <time>2008-01-28T09:13:22Z</time>
      </trkpt>
      <trkpt lat="50.355976" lon="6.678406">
        <time>2008-01-28T09:13:22Z</time>
      </trkpt>
      <trkpt lat="50.355770" lon="6.678277">
        <time>2008-01-28T09:13:22Z</time>
      </trkpt>
      <trkpt lat="50.355546" lon="6.678147">
        <time>2008-01-28T09:13:22Z</time>
      </trkpt>
      <trkpt lat="50.355264" lon="6.678705">
        <time>2008-01-28T09:13:22Z</time>
      </trkpt>
      <trkpt lat="50.355264" lon="6.678705">
        <time>2008-01-28T09:13:22Z</time>
      </trkpt>
      <trkpt lat="50.355030" lon="6.678646">
        <time>2008-01-28T09:13:22Z</time>
      </trkpt>
      <trkpt lat="50.354886" lon="6.678672">
        <time>2008-01-28T09:13:22Z</time>
      </trkpt>
      <trkpt lat="50.354886" lon="6.678672">
        <time>2008-01-28T09:13:22Z</time>
      </trkpt>
      <trkpt lat="50.354740" lon="6.679077">
        <time>2008-01-28T09:13:22Z</time>
      </trkpt>
      <trkpt lat="50.354504" lon="6.679439">
        <time>2008-01-28T09:13:22Z</time>
      </trkpt>
      <trkpt lat="50.354260" lon="6.679787">
        <time>2008-01-28T09:13:22Z</time>
      </trkpt>
      <trkpt lat="50.353953" lon="6.679881">
        <time>2008-01-28T09:13:22Z</time>
      </trkpt>
      <trkpt lat="50.353953" lon="6.679881">
        <time>2008-01-28T09:13:22Z</time>
      </trkpt>
      <trkpt lat="50.354276" lon="6.680040">
        <time>2008-01-28T09:13:22Z</time>
      </trkpt>
      <trkpt lat="50.354663" lon="6.679975">
        <time>2008-01-28T09:13:22Z</time>
      </trkpt>
      <trkpt lat="50.354975" lon="6.680429">
        <time>2008-01-28T09:13:22Z</time>
      </trkpt>
      <trkpt lat="50.354975" lon="6.680429">
        <time>2008-01-28T09:13:22Z</time>
      </trkpt>
      <trkpt lat="50.354712" lon="6.680861">
        <time>2008-01-28T09:13:22Z</time>
      </trkpt>
      <trkpt lat="50.354467" lon="6.681265">
        <time>2008-01-28T09:13:22Z</time>
      </trkpt>
      <trkpt lat="50.354467" lon="6.681265">
        <time>2008-01-28T09:13:22Z</time>
      </trkpt>
      <trkpt lat="50.354768" lon="6.681986">
        <time>2008-01-28T09:13:22Z</time>
      </trkpt>
      <trkpt lat="50.355187" lon="6.682596">
        <time>2008-01-28T09:13:22Z</time>
      </trkpt>
      <trkpt lat="50.355471" lon="6.683247">
        <time>2008-01-28T09:13:22Z</time>
      </trkpt>
      <trkpt lat="50.355471" lon="6.683247">
        <time>2008-01-28T09:13:22Z</time>
      </trkpt>
      <trkpt lat="50.355961" lon="6.684013">
        <time>2008-01-28T09:13:22Z</time>
      </trkpt>
      <trkpt lat="50.356332" lon="6.685170">
        <ele>494.000000</ele>
        <time>2008-01-28T09:13:22Z</time>
      </trkpt>
      <trkpt lat="50.356332" lon="6.685170">
        <time>2008-01-28T09:13:22Z</time>
      </trkpt>
      <trkpt lat="50.355653" lon="6.685905">
        <time>2008-01-28T09:13:22Z</time>
      </trkpt>
      <trkpt lat="50.355029" lon="6.686514">
        <ele>491.000000</ele>
        <time>2008-01-28T09:13:22Z</time>
      </trkpt>
      <trkpt lat="50.355029" lon="6.686514">
        <time>2008-01-28T09:13:22Z</time>
      </trkpt>
      <trkpt lat="50.355090" lon="6.686825">
        <time>2008-01-28T09:13:22Z</time>
      </trkpt>
      <trkpt lat="50.355169" lon="6.687177">
        <ele>496.000000</ele>
        <time>2008-01-28T09:13:22Z</time>
      </trkpt>
      <trkpt lat="50.355169" lon="6.687177">
        <time>2008-01-28T09:13:22Z</time>
      </trkpt>
      <trkpt lat="50.354745" lon="6.687354">
        <time>2008-01-28T09:13:22Z</time>
      </trkpt>
      <trkpt lat="50.352268" lon="6.689678">
        <ele>512.000000</ele>
        <time>2008-01-28T09:13:22Z</time>
      </trkpt>
      <trkpt lat="50.352268" lon="6.689678">
        <time>2008-01-28T09:13:22Z</time>
      </trkpt>
      <trkpt lat="50.351328" lon="6.690564">
        <time>2008-01-28T09:13:22Z</time>
      </trkpt>
      <trkpt lat="50.351382" lon="6.690551">
        <ele>511.000000</ele>
        <time>2008-01-28T09:13:22Z</time>
      </trkpt>
      <trkpt lat="50.351382" lon="6.690551">
        <time>2008-01-28T09:13:22Z</time>
      </trkpt>
      <trkpt lat="50.353038" lon="6.693286">
        <time>2008-01-28T09:13:22Z</time>
      </trkpt>
      <trkpt lat="50.353608" lon="6.694138">
        <ele>512.000000</ele>
        <time>2008-01-28T09:13:22Z</time>
      </trkpt>
      <trkpt lat="50.353608" lon="6.694138">
        <time>2008-01-28T09:13:22Z</time>
      </trkpt>
      <trkpt lat="50.352338" lon="6.696143">
        <time>2008-01-28T09:13:22Z</time>
      </trkpt>
      <trkpt lat="50.352338" lon="6.696143">
        <time>2008-01-28T09:13:22Z</time>
      </trkpt>
      <trkpt lat="50.351520" lon="6.697550">
        <time>2008-01-28T09:13:22Z</time>
      </trkpt>
      <trkpt lat="50.350697" lon="6.698493">
        <time>2008-01-28T09:13:22Z</time>
      </trkpt>
      <trkpt lat="50.350299" lon="6.698796">
        <time>2008-01-28T09:13:22Z</time>
      </trkpt>
      <trkpt lat="50.350299" lon="6.698796">
        <time>2008-01-28T09:13:22Z</time>
      </trkpt>
      <trkpt lat="50.348936" lon="6.699802">
        <time>2008-01-28T09:13:22Z</time>
      </trkpt>
      <trkpt lat="50.348692" lon="6.699953">
        <ele>531.000000</ele>
        <time>2008-01-28T09:13:22Z</time>
      </trkpt>
      <trkpt lat="50.348692" lon="6.699953">
        <time>2008-01-28T09:13:22Z</time>
      </trkpt>
      <trkpt lat="50.347906" lon="6.700560">
        <time>2008-01-28T09:13:22Z</time>
      </trkpt>
      <trkpt lat="50.346829" lon="6.700375">
        <time>2008-01-28T09:13:22Z</time>
      </trkpt>
      <trkpt lat="50.346828" lon="6.700544">
        <time>2008-01-28T09:13:22Z</time>
      </trkpt>
      <trkpt lat="50.346828" lon="6.700544">
        <time>2008-01-28T09:13:22Z</time>
      </trkpt>
      <trkpt lat="50.345617" lon="6.700034">
        <time>2008-01-28T09:13:22Z</time>
      </trkpt>
      <trkpt lat="50.345177" lon="6.699943">
        <ele>503.000000</ele>
        <time>2008-01-28T09:13:22Z</time>
      </trkpt>
      <trkpt lat="50.345177" lon="6.699943">
        <time>2008-01-28T09:13:22Z</time>
      </trkpt>
      <trkpt lat="50.344223" lon="6.700154">
        <time>2008-01-28T09:13:22Z</time>
      </trkpt>
      <trkpt lat="50.343663" lon="6.700624">
        <time>2008-01-28T09:13:22Z</time>
      </trkpt>
      <trkpt lat="50.343269" lon="6.701756">
        <time>2008-01-28T09:13:22Z</time>
      </trkpt>
      <trkpt lat="50.342868" lon="6.702677">
        <ele>487.000000</ele>
        <time>2008-01-28T09:13:22Z</time>
      </trkpt>
      <trkpt lat="50.342868" lon="6.702677">
        <time>2008-01-28T09:13:22Z</time>
      </trkpt>
      <trkpt lat="50.342836" lon="6.703463">
        <time>2008-01-28T09:13:22Z</time>
      </trkpt>
      <trkpt lat="50.342976" lon="6.704084">
        <time>2008-01-28T09:13:22Z</time>
      </trkpt>
      <trkpt lat="50.343276" lon="6.705141">
        <time>2008-01-28T09:13:22Z</time>
      </trkpt>
      <trkpt lat="50.343782" lon="6.706076">
        <time>2008-01-28T09:13:22Z</time>
      </trkpt>
      <trkpt lat="50.344163" lon="6.707093">
        <time>2008-01-28T09:13:22Z</time>
      </trkpt>
      <trkpt lat="50.344471" lon="6.708152">
        <ele>490.000000</ele>
        <time>2008-01-28T09:13:22Z</time>
      </trkpt>
      <trkpt lat="50.344471" lon="6.708152">
        <time>2008-01-28T09:13:22Z</time>
      </trkpt>
      <trkpt lat="50.344639" lon="6.708589">
        <time>2008-01-28T09:13:22Z</time>
      </trkpt>
      <trkpt lat="50.344880" lon="6.708916">
        <time>2008-01-28T09:13:22Z</time>
      </trkpt>
      <trkpt lat="50.344880" lon="6.708916">
        <time>2008-01-28T09:13:22Z</time>
      </trkpt>
      <trkpt lat="50.345283" lon="6.709091">
        <time>2008-01-28T09:13:22Z</time>
      </trkpt>
      <trkpt lat="50.345887" lon="6.708861">
        <time>2008-01-28T09:13:22Z</time>
      </trkpt>
      <trkpt lat="50.345929" lon="6.709353">
        <time>2008-01-28T09:13:22Z</time>
      </trkpt>
      <trkpt lat="50.345856" lon="6.709465">
        <ele>480.000000</ele>
        <time>2008-01-28T09:13:22Z</time>
      </trkpt>
      <trkpt lat="50.345856" lon="6.709465">
        <time>2008-01-28T09:13:22Z</time>
      </trkpt>
      <trkpt lat="50.345375" lon="6.710258">
        <time>2008-01-28T09:13:22Z</time>
      </trkpt>
      <trkpt lat="50.344834" lon="6.710601">
        <time>2008-01-28T09:13:22Z</time>
      </trkpt>
      <trkpt lat="50.344723" lon="6.711119">
        <time>2008-01-28T09:13:22Z</time>
      </trkpt>
      <trkpt lat="50.344826" lon="6.711880">
        <time>2008-01-28T09:13:22Z</time>
      </trkpt>
      <trkpt lat="50.345161" lon="6.712938">
        <time>2008-01-28T09:13:22Z</time>
      </trkpt>
      <trkpt lat="50.345436" lon="6.713462">
        <time>2008-01-28T09:13:22Z</time>
      </trkpt>
      <trkpt lat="50.345686" lon="6.713817">
        <time>2008-01-28T09:13:22Z</time>
      </trkpt>
      <trkpt lat="50.345686" lon="6.713817">
        <time>2008-01-28T09:13:22Z</time>
      </trkpt>
      <trkpt lat="50.346328" lon="6.714712">
        <time>2008-01-28T09:13:22Z</time>
      </trkpt>
      <trkpt lat="50.346744" lon="6.715716">
        <time>2008-01-28T09:13:22Z</time>
      </trkpt>
      <trkpt lat="50.347104" lon="6.717126">
        <time>2008-01-28T09:13:22Z</time>
      </trkpt>
      <trkpt lat="50.347206" lon="6.718055">
        <time>2008-01-28T09:13:22Z</time>
      </trkpt>
      <trkpt lat="50.347428" lon="6.718592">
        <time>2008-01-28T09:13:22Z</time>
      </trkpt>
      <trkpt lat="50.347650" lon="6.718989">
        <ele>466.000000</ele>
        <time>2008-01-28T09:13:22Z</time>
      </trkpt>
      <trkpt lat="50.347650" lon="6.718989">
        <time>2008-01-28T09:13:22Z</time>
      </trkpt>
      <trkpt lat="50.347612" lon="6.719227">
        <time>2008-01-28T09:13:22Z</time>
      </trkpt>
      <trkpt lat="50.347082" lon="6.719289">
        <time>2008-01-28T09:13:22Z</time>
      </trkpt>
      <trkpt lat="50.346956" lon="6.719344">
        <time>2008-01-28T09:13:22Z</time>
      </trkpt>
      <trkpt lat="50.346956" lon="6.719344">
        <time>2008-01-28T09:13:22Z</time>
      </trkpt>
      <trkpt lat="50.346631" lon="6.719465">
        <ele>464.000000</ele>
        <time>2008-01-28T09:13:22Z</time>
      </trkpt>
      <trkpt lat="50.346631" lon="6.719465">
        <time>2008-01-28T09:13:22Z</time>
      </trkpt>
      <trkpt lat="50.346237" lon="6.719248">
        <time>2008-01-28T09:13:22Z</time>
      </trkpt>
      <trkpt lat="50.346237" lon="6.719248">
        <time>2008-01-28T09:13:22Z</time>
      </trkpt>
      <trkpt lat="50.345582" lon="6.719028">
        <time>2008-01-28T09:13:22Z</time>
      </trkpt>
      <trkpt lat="50.345582" lon="6.719028">
        <time>2008-01-28T09:13:22Z</time>
      </trkpt>
      <trkpt lat="50.345419" lon="6.719278">
        <time>2008-01-28T09:13:22Z</time>
      </trkpt>
      <trkpt lat="50.345313" lon="6.720274">
        <time>2008-01-28T09:13:22Z</time>
      </trkpt>
      <trkpt lat="50.345390" lon="6.720950">
        <ele>484.000000</ele>
        <time>2008-01-28T09:13:22Z</time>
      </trkpt>
      <trkpt lat="50.345390" lon="6.720950">
        <time>2008-01-28T09:13:22Z</time>
      </trkpt>
      <trkpt lat="50.345298" lon="6.721370">
        <time>2008-01-28T09:13:22Z</time>
      </trkpt>
      <trkpt lat="50.345025" lon="6.721815">
        <time>2008-01-28T09:13:22Z</time>
      </trkpt>
      <trkpt lat="50.344715" lon="6.722611">
        <time>2008-01-28T09:13:22Z</time>
      </trkpt>
      <trkpt lat="50.344613" lon="6.723031">
        <time>2008-01-28T09:13:22Z</time>
      </trkpt>
      <trkpt lat="50.344421" lon="6.723590">
        <time>2008-01-28T09:13:22Z</time>
      </trkpt>
      <trkpt lat="50.344337" lon="6.724137">
        <ele>506.000000</ele>
        <time>2008-01-28T09:13:22Z</time>
      </trkpt>
      <trkpt lat="50.344337" lon="6.724137">
        <time>2008-01-28T09:13:22Z</time>
      </trkpt>
      <trkpt lat="50.344163" lon="6.724584">
        <time>2008-01-28T09:13:22Z</time>
      </trkpt>
      <trkpt lat="50.344105" lon="6.725159">
        <time>2008-01-28T09:13:22Z</time>
      </trkpt>
      <trkpt lat="50.344139" lon="6.725609">
        <ele>506.000000</ele>
        <time>2008-01-28T09:13:22Z</time>
      </trkpt>
      <trkpt lat="50.344139" lon="6.725609">
        <time>2008-01-28T09:13:22Z</time>
      </trkpt>
      <trkpt lat="50.344013" lon="6.725509">
        <time>2008-01-28T09:13:22Z</time>
      </trkpt>
      <trkpt lat="50.343854" lon="6.725155">
        <time>2008-01-28T09:13:22Z</time>
      </trkpt>
      <trkpt lat="50.343884" lon="6.724593">
        <time>2008-01-28T09:13:22Z</time>
      </trkpt>
      <trkpt lat="50.344015" lon="6.723795">
        <time>2008-01-28T09:13:22Z</time>
      </trkpt>
      <trkpt lat="50.344021" lon="6.722868">
        <time>2008-01-28T09:13:22Z</time>
      </trkpt>
      <trkpt lat="50.344029" lon="6.721505">
        <time>2008-01-28T09:13:22Z</time>
      </trkpt>
      <trkpt lat="50.343809" lon="6.720799">
        <time>2008-01-28T09:13:22Z</time>
      </trkpt>
      <trkpt lat="50.343513" lon="6.720682">
        <time>2008-01-28T09:13:22Z</time>
      </trkpt>
      <trkpt lat="50.343242" lon="6.720903">
        <time>2008-01-28T09:13:22Z</time>
      </trkpt>
      <trkpt lat="50.342908" lon="6.721179">
        <time>2008-01-28T09:13:22Z</time>
      </trkpt>
      <trkpt lat="50.342486" lon="6.720962">
        <time>2008-01-28T09:13:22Z</time>
      </trkpt>
      <trkpt lat="50.341922" lon="6.720686">
        <time>2008-01-28T09:13:22Z</time>
      </trkpt>
      <trkpt lat="50.341643" lon="6.720724">
        <ele>510.000000</ele>
        <time>2008-01-28T09:13:22Z</time>
      </trkpt>
      <trkpt lat="50.341643" lon="6.720724">
        <time>2008-01-28T09:13:22Z</time>
      </trkpt>
      <trkpt lat="50.341184" lon="6.720802">
        <time>2008-01-28T09:13:22Z</time>
      </trkpt>
      <trkpt lat="50.340913" lon="6.720938">
        <time>2008-01-28T09:13:22Z</time>
      </trkpt>
      <trkpt lat="50.340410" lon="6.722391">
        <time>2008-01-28T09:13:22Z</time>
      </trkpt>
      <trkpt lat="50.340410" lon="6.722391">
        <time>2008-01-28T09:13:22Z</time>
      </trkpt>
      <trkpt lat="50.340181" lon="6.723090">
        <time>2008-01-28T09:13:22Z</time>
      </trkpt>
      <trkpt lat="50.340150" lon="6.723750">
        <time>2008-01-28T09:13:22Z</time>
      </trkpt>
      <trkpt lat="50.339752" lon="6.724067">
        <ele>505.000000</ele>
        <time>2008-01-28T09:13:22Z</time>
      </trkpt>
      <trkpt lat="50.339752" lon="6.724067">
        <time>2008-01-28T09:13:22Z</time>
      </trkpt>
      <trkpt lat="50.339960" lon="6.725264">
        <time>2008-01-28T09:13:22Z</time>
      </trkpt>
      <trkpt lat="50.340190" lon="6.725900">
        <time>2008-01-28T09:13:22Z</time>
      </trkpt>
      <trkpt lat="50.340190" lon="6.725900">
        <time>2008-01-28T09:13:22Z</time>
      </trkpt>
      <trkpt lat="50.340208" lon="6.725970">
        <time>2008-01-28T09:13:22Z</time>
      </trkpt>
      <trkpt lat="50.340178" lon="6.726405">
        <time>2008-01-28T09:13:22Z</time>
      </trkpt>
      <trkpt lat="50.340319" lon="6.726885">
        <ele>494.000000</ele>
        <time>2008-01-28T09:13:22Z</time>
      </trkpt>
      <trkpt lat="50.340319" lon="6.726885">
        <time>2008-01-28T09:13:22Z</time>
      </trkpt>
      <trkpt lat="50.339966" lon="6.727231">
        <time>2008-01-28T09:13:22Z</time>
      </trkpt>
      <trkpt lat="50.339966" lon="6.727231">
        <time>2008-01-28T09:13:22Z</time>
      </trkpt>
      <trkpt lat="50.340144" lon="6.727585">
        <time>2008-01-28T09:13:22Z</time>
      </trkpt>
      <trkpt lat="50.340304" lon="6.727812">
        <time>2008-01-28T09:13:22Z</time>
      </trkpt>
      <trkpt lat="50.339851" lon="6.728325">
        <time>2008-01-28T09:13:22Z</time>
      </trkpt>
      <trkpt lat="50.339381" lon="6.728879">
        <time>2008-01-28T09:13:22Z</time>
      </trkpt>
      <trkpt lat="50.338918" lon="6.729462">
        <time>2008-01-28T09:13:22Z</time>
      </trkpt>
      <trkpt lat="50.338655" lon="6.729866">
        <ele>513.000000</ele>
        <time>2008-01-28T09:13:22Z</time>
      </trkpt>
      <trkpt lat="50.338655" lon="6.729866">
        <time>2008-01-28T09:13:22Z</time>
      </trkpt>
      <trkpt lat="50.338393" lon="6.730115">
        <time>2008-01-28T09:13:22Z</time>
      </trkpt>
      <trkpt lat="50.337586" lon="6.731198">
        <time>2008-01-28T09:13:22Z</time>
      </trkpt>
      <trkpt lat="50.337278" lon="6.731530">
        <ele>517.000000</ele>
        <time>2008-01-28T09:13:22Z</time>
      </trkpt>
      <trkpt lat="50.337278" lon="6.731530">
        <time>2008-01-28T09:13:22Z</time>
      </trkpt>
      <trkpt lat="50.337047" lon="6.731133">
        <time>2008-01-28T09:13:22Z</time>
      </trkpt>
      <trkpt lat="50.336851" lon="6.730765">
        <time>2008-01-28T09:13:22Z</time>
      </trkpt>
      <trkpt lat="50.336541" lon="6.730128">
        <time>2008-01-28T09:13:22Z</time>
      </trkpt>
      <trkpt lat="50.336399" lon="6.729789">
        <ele>524.000000</ele>
        <time>2008-01-28T09:13:22Z</time>
      </trkpt>
      <trkpt lat="50.336399" lon="6.729789">
        <time>2008-01-28T09:13:22Z</time>
      </trkpt>
      <trkpt lat="50.336146" lon="6.729968">
        <time>2008-01-28T09:13:22Z</time>
      </trkpt>
      <trkpt lat="50.335787" lon="6.729962">
        <ele>517.000000</ele>
        <time>2008-01-28T09:13:22Z</time>
      </trkpt>
      <trkpt lat="50.335787" lon="6.729962">
        <time>2008-01-28T09:13:22Z</time>
      </trkpt>
      <trkpt lat="50.335560" lon="6.730310">
        <time>2008-01-28T09:13:22Z</time>
      </trkpt>
      <trkpt lat="50.335423" lon="6.730547">
        <time>2008-01-28T09:13:22Z</time>
      </trkpt>
      <trkpt lat="50.335123" lon="6.731132">
        <time>2008-01-28T09:13:22Z</time>
      </trkpt>
      <trkpt lat="50.334950" lon="6.731466">
        <ele>507.000000</ele>
        <time>2008-01-28T09:13:22Z</time>
      </trkpt>
      <trkpt lat="50.334950" lon="6.731466">
        <time>2008-01-28T09:13:22Z</time>
      </trkpt>
      <trkpt lat="50.335029" lon="6.731777">
        <time>2008-01-28T09:13:22Z</time>
      </trkpt>
      <trkpt lat="50.334983" lon="6.732015">
        <time>2008-01-28T09:13:22Z</time>
      </trkpt>
      <trkpt lat="50.334981" lon="6.732268">
        <time>2008-01-28T09:13:22Z</time>
      </trkpt>
      <trkpt lat="50.334979" lon="6.732534">
        <time>2008-01-28T09:13:22Z</time>
      </trkpt>
      <trkpt lat="50.334897" lon="6.732688">
        <time>2008-01-28T09:13:22Z</time>
      </trkpt>
      <trkpt lat="50.334807" lon="6.732855">
        <ele>498.000000</ele>
        <time>2008-01-28T09:13:22Z</time>
      </trkpt>
      <trkpt lat="50.334807" lon="6.732855">
        <time>2008-01-28T09:13:22Z</time>
      </trkpt>
      <trkpt lat="50.334608" lon="6.733048">
        <time>2008-01-28T09:13:22Z</time>
      </trkpt>
      <trkpt lat="50.334390" lon="6.733368">
        <time>2008-01-28T09:13:22Z</time>
      </trkpt>
      <trkpt lat="50.333993" lon="6.733474">
        <time>2008-01-28T09:13:22Z</time>
      </trkpt>
      <trkpt lat="50.333696" lon="6.733582">
        <time>2008-01-28T09:13:22Z</time>
      </trkpt>
      <trkpt lat="50.333462" lon="6.733663">
        <time>2008-01-28T09:13:22Z</time>
      </trkpt>
      <trkpt lat="50.333219" lon="6.733715">
        <ele>481.000000</ele>
        <time>2008-01-28T09:13:22Z</time>
      </trkpt>
      <trkpt lat="50.333219" lon="6.733715">
        <time>2008-01-28T09:13:22Z</time>
      </trkpt>
      <trkpt lat="50.332886" lon="6.733794">
        <time>2008-01-28T09:13:22Z</time>
      </trkpt>
      <trkpt lat="50.332354" lon="6.733927">
        <time>2008-01-28T09:13:22Z</time>
      </trkpt>
      <trkpt lat="50.331832" lon="6.734031">
        <ele>483.000000</ele>
        <time>2008-01-28T09:13:22Z</time>
      </trkpt>
      <trkpt lat="50.331832" lon="6.734031">
        <time>2008-01-28T09:13:22Z</time>
      </trkpt>
      <trkpt lat="50.331769" lon="6.734170">
        <time>2008-01-28T09:13:22Z</time>
      </trkpt>
      <trkpt lat="50.331171" lon="6.734835">
        <time>2008-01-28T09:13:22Z</time>
      </trkpt>
      <trkpt lat="50.331171" lon="6.734835">
        <time>2008-01-28T09:13:22Z</time>
      </trkpt>
      <trkpt lat="50.329994" lon="6.736095">
        <ele>482.000000</ele>
        <time>2008-01-28T09:13:22Z</time>
      </trkpt>
      <trkpt lat="50.329994" lon="6.736095">
        <time>2008-01-28T09:13:22Z</time>
      </trkpt>
      <trkpt lat="50.329628" lon="6.735724">
        <ele>482.000000</ele>
        <time>2008-01-28T09:13:22Z</time>
      </trkpt>
      <trkpt lat="50.329628" lon="6.735724">
        <time>2008-01-28T09:13:22Z</time>
      </trkpt>
      <trkpt lat="50.329282" lon="6.736407">
        <ele>480.000000</ele>
        <time>2008-01-28T09:13:22Z</time>
      </trkpt>
      <trkpt lat="50.329282" lon="6.736407">
        <time>2008-01-28T09:13:22Z</time>
      </trkpt>
      <trkpt lat="50.328155" lon="6.738384">
        <time>2008-01-28T09:13:22Z</time>
      </trkpt>
      <trkpt lat="50.327918" lon="6.738900">
        <ele>474.000000</ele>
        <time>2008-01-28T09:13:22Z</time>
      </trkpt>
      <trkpt lat="50.327918" lon="6.738900">
        <time>2008-01-28T09:13:22Z</time>
      </trkpt>
      <trkpt lat="50.327385" lon="6.739369">
        <time>2008-01-28T09:13:22Z</time>
      </trkpt>
      <trkpt lat="50.327285" lon="6.739438">
        <ele>470.000000</ele>
        <time>2008-01-28T09:13:22Z</time>
      </trkpt>
      <trkpt lat="50.327285" lon="6.739438">
        <time>2008-01-28T09:13:22Z</time>
      </trkpt>
      <trkpt lat="50.326434" lon="6.740366">
        <time>2008-01-28T09:13:22Z</time>
      </trkpt>
      <trkpt lat="50.326434" lon="6.740366">
        <time>2008-01-28T09:13:22Z</time>
      </trkpt>
      <trkpt lat="50.325972" lon="6.740934">
        <time>2008-01-28T09:13:22Z</time>
      </trkpt>
      <trkpt lat="50.325972" lon="6.740934">
        <time>2008-01-28T09:13:22Z</time>
      </trkpt>
      <trkpt lat="50.324742" lon="6.742109">
        <ele>468.000000</ele>
        <time>2008-01-28T09:13:22Z</time>
      </trkpt>
      <trkpt lat="50.324742" lon="6.742109">
        <time>2008-01-28T09:13:22Z</time>
      </trkpt>
      <trkpt lat="50.325253" lon="6.743689">
        <time>2008-01-28T09:13:22Z</time>
      </trkpt>
      <trkpt lat="50.325253" lon="6.743689">
        <time>2008-01-28T09:13:22Z</time>
      </trkpt>
      <trkpt lat="50.325680" lon="6.744454">
        <time>2008-01-28T09:13:22Z</time>
      </trkpt>
      <trkpt lat="50.326015" lon="6.745471">
        <time>2008-01-28T09:13:22Z</time>
      </trkpt>
      <trkpt lat="50.326288" lon="6.746430">
        <time>2008-01-28T09:13:22Z</time>
      </trkpt>
      <trkpt lat="50.326459" lon="6.747795">
        <time>2008-01-28T09:13:22Z</time>
      </trkpt>
      <trkpt lat="50.326282" lon="6.748677">
        <ele>448.000000</ele>
        <time>2008-01-28T09:13:22Z</time>
      </trkpt>
      <trkpt lat="50.326282" lon="6.748677">
        <time>2008-01-28T09:13:22Z</time>
      </trkpt>
      <trkpt lat="50.326144" lon="6.749236">
        <time>2008-01-28T09:13:22Z</time>
      </trkpt>
      <trkpt lat="50.326077" lon="6.749811">
        <time>2008-01-28T09:13:22Z</time>
      </trkpt>
      <trkpt lat="50.326074" lon="6.750288">
        <time>2008-01-28T09:13:22Z</time>
      </trkpt>
      <trkpt lat="50.326079" lon="6.750963">
        <ele>438.000000</ele>
        <time>2008-01-28T09:13:22Z</time>
      </trkpt>
      <trkpt lat="50.326079" lon="6.750963">
        <time>2008-01-28T09:13:22Z</time>
      </trkpt>
      <trkpt lat="50.327103" lon="6.751007">
        <time>2008-01-28T09:13:22Z</time>
      </trkpt>
      <trkpt lat="50.328064" lon="6.751120">
        <ele>427.000000</ele>
        <time>2008-01-28T09:13:22Z</time>
      </trkpt>
      <trkpt lat="50.328064" lon="6.751120">
        <time>2008-01-28T09:13:22Z</time>
      </trkpt>
      <trkpt lat="50.328140" lon="6.751866">
        <time>2008-01-28T09:13:22Z</time>
      </trkpt>
      <trkpt lat="50.328152" lon="6.752793">
        <time>2008-01-28T09:13:22Z</time>
      </trkpt>
      <trkpt lat="50.328322" lon="6.754354">
        <ele>422.000000</ele>
        <time>2008-01-28T09:13:22Z</time>
      </trkpt>
      <trkpt lat="50.328322" lon="6.754354">
        <time>2008-01-28T09:13:22Z</time>
      </trkpt>
      <trkpt lat="50.328573" lon="6.754415">
        <time>2008-01-28T09:13:22Z</time>
      </trkpt>
      <trkpt lat="50.328880" lon="6.754307">
        <time>2008-01-28T09:13:22Z</time>
      </trkpt>
      <trkpt lat="50.329132" lon="6.754283">
        <ele>419.000000</ele>
        <time>2008-01-28T09:13:22Z</time>
      </trkpt>
      <trkpt lat="50.329132" lon="6.754283">
        <time>2008-01-28T09:13:22Z</time>
      </trkpt>
      <trkpt lat="50.329141" lon="6.755617">
        <time>2008-01-28T09:13:22Z</time>
      </trkpt>
      <trkpt lat="50.329199" lon="6.756433">
        <time>2008-01-28T09:13:22Z</time>
      </trkpt>
      <trkpt lat="50.329285" lon="6.756912">
        <time>2008-01-28T09:13:22Z</time>
      </trkpt>
      <trkpt lat="50.329285" lon="6.756912">
        <time>2008-01-28T09:13:22Z</time>
      </trkpt>
      <trkpt lat="50.329335" lon="6.757629">
        <time>2008-01-28T09:13:22Z</time>
      </trkpt>
      <trkpt lat="50.329316" lon="6.757797">
        <time>2008-01-28T09:13:22Z</time>
      </trkpt>
      <trkpt lat="50.329316" lon="6.757797">
        <time>2008-01-28T09:13:22Z</time>
      </trkpt>
      <trkpt lat="50.329383" lon="6.758542">
        <time>2008-01-28T09:13:22Z</time>
      </trkpt>
      <trkpt lat="50.329459" lon="6.759161">
        <time>2008-01-28T09:13:22Z</time>
      </trkpt>
      <trkpt lat="50.329459" lon="6.759161">
        <time>2008-01-28T09:13:22Z</time>
      </trkpt>
      <trkpt lat="50.329594" lon="6.760512">
        <ele>403.000000</ele>
        <time>2008-01-28T09:13:22Z</time>
      </trkpt>
      <trkpt lat="50.329594" lon="6.760512">
        <time>2008-01-28T09:13:22Z</time>
      </trkpt>
      <trkpt lat="50.329115" lon="6.760897">
        <time>2008-01-28T09:13:22Z</time>
      </trkpt>
      <trkpt lat="50.329115" lon="6.760897">
        <time>2008-01-28T09:13:22Z</time>
      </trkpt>
      <trkpt lat="50.329161" lon="6.763538">
        <time>2008-01-28T09:13:22Z</time>
      </trkpt>
      <trkpt lat="50.329205" lon="6.763694">
        <time>2008-01-28T09:13:22Z</time>
      </trkpt>
      <trkpt lat="50.329205" lon="6.763694">
        <time>2008-01-28T09:13:22Z</time>
      </trkpt>
      <trkpt lat="50.329510" lon="6.765131">
        <time>2008-01-28T09:13:22Z</time>
      </trkpt>
      <trkpt lat="50.329527" lon="6.765314">
        <time>2008-01-28T09:13:22Z</time>
      </trkpt>
      <trkpt lat="50.329527" lon="6.765314">
        <time>2008-01-28T09:13:22Z</time>
      </trkpt>
      <trkpt lat="50.329843" lon="6.766541">
        <time>2008-01-28T09:13:22Z</time>
      </trkpt>
      <trkpt lat="50.329936" lon="6.767315">
        <ele>392.000000</ele>
        <time>2008-01-28T09:13:22Z</time>
      </trkpt>
      <trkpt lat="50.329936" lon="6.767315">
        <time>2008-01-28T09:13:22Z</time>
      </trkpt>
      <trkpt lat="50.329945" lon="6.767371">
        <time>2008-01-28T09:13:22Z</time>
      </trkpt>
      <trkpt lat="50.330108" lon="6.768610">
        <time>2008-01-28T09:13:22Z</time>
      </trkpt>
      <trkpt lat="50.330049" lon="6.769269">
        <time>2008-01-28T09:13:22Z</time>
      </trkpt>
      <trkpt lat="50.329687" lon="6.769670">
        <time>2008-01-28T09:13:22Z</time>
      </trkpt>
      <trkpt lat="50.329603" lon="6.770104">
        <ele>377.000000</ele>
        <time>2008-01-28T09:13:22Z</time>
      </trkpt>
      <trkpt lat="50.329603" lon="6.770104">
        <time>2008-01-28T09:13:22Z</time>
      </trkpt>
      <trkpt lat="50.329458" lon="6.770411">
        <time>2008-01-28T09:13:22Z</time>
      </trkpt>
      <trkpt lat="50.328453" lon="6.770001">
        <ele>370.000000</ele>
        <time>2008-01-28T09:13:22Z</time>
      </trkpt>
      <trkpt lat="50.328453" lon="6.770001">
        <time>2008-01-28T09:13:22Z</time>
      </trkpt>
      <trkpt lat="50.328023" lon="6.769756">
        <time>2008-01-28T09:13:22Z</time>
      </trkpt>
      <trkpt lat="50.327486" lon="6.769480">
        <time>2008-01-28T09:13:22Z</time>
      </trkpt>
      <trkpt lat="50.327055" lon="6.769319">
        <ele>379.000000</ele>
        <time>2008-01-28T09:13:22Z</time>
      </trkpt>
      <trkpt lat="50.327055" lon="6.769319">
        <time>2008-01-28T09:13:22Z</time>
      </trkpt>
      <trkpt lat="50.327187" lon="6.769840">
        <time>2008-01-28T09:13:22Z</time>
      </trkpt>
      <trkpt lat="50.326926" lon="6.769836">
        <time>2008-01-28T09:13:22Z</time>
      </trkpt>
      <trkpt lat="50.325549" lon="6.768733">
        <ele>370.000000</ele>
        <time>2008-01-28T09:13:22Z</time>
      </trkpt>
      <trkpt lat="50.325549" lon="6.768733">
        <time>2008-01-28T09:13:22Z</time>
      </trkpt>
      <trkpt lat="50.325136" lon="6.768557">
        <time>2008-01-28T09:13:22Z</time>
      </trkpt>
      <trkpt lat="50.324587" lon="6.768647">
        <ele>370.000000</ele>
        <time>2008-01-28T09:13:22Z</time>
      </trkpt>
      <trkpt lat="50.324587" lon="6.768647">
        <time>2008-01-28T09:13:22Z</time>
      </trkpt>
      <trkpt lat="50.324047" lon="6.768891">
        <time>2008-01-28T09:13:22Z</time>
      </trkpt>
      <trkpt lat="50.323622" lon="6.769151">
        <time>2008-01-28T09:13:22Z</time>
      </trkpt>
      <trkpt lat="50.323198" lon="6.769425">
        <time>2008-01-28T09:13:22Z</time>
      </trkpt>
      <trkpt lat="50.322885" lon="6.770459">
        <time>2008-01-28T09:13:22Z</time>
      </trkpt>
      <trkpt lat="50.322885" lon="6.770459">
        <time>2008-01-28T09:13:22Z</time>
      </trkpt>
      <trkpt lat="50.322831" lon="6.770556">
        <time>2008-01-28T09:13:22Z</time>
      </trkpt>
      <trkpt lat="50.322712" lon="6.770793">
        <time>2008-01-28T09:13:22Z</time>
      </trkpt>
      <trkpt lat="50.322512" lon="6.771239">
        <time>2008-01-28T09:13:22Z</time>
      </trkpt>
      <trkpt lat="50.322624" lon="6.771901">
        <time>2008-01-28T09:13:22Z</time>
      </trkpt>
      <trkpt lat="50.322792" lon="6.772297">
        <time>2008-01-28T09:13:22Z</time>
      </trkpt>
      <trkpt lat="50.323114" lon="6.772667">
        <ele>388.000000</ele>
        <time>2008-01-28T09:13:22Z</time>
      </trkpt>
      <trkpt lat="50.323114" lon="6.772667">
        <time>2008-01-28T09:13:22Z</time>
      </trkpt>
      <trkpt lat="50.322985" lon="6.773129">
        <time>2008-01-28T09:13:22Z</time>
      </trkpt>
      <trkpt lat="50.322641" lon="6.773432">
        <time>2008-01-28T09:13:22Z</time>
      </trkpt>
      <trkpt lat="50.322442" lon="6.773653">
        <time>2008-01-28T09:13:22Z</time>
      </trkpt>
      <trkpt lat="50.322314" lon="6.773988">
        <ele>387.000000</ele>
        <time>2008-01-28T09:13:22Z</time>
      </trkpt>
      <trkpt lat="50.322314" lon="6.773988">
        <time>2008-01-28T09:13:22Z</time>
      </trkpt>
      <trkpt lat="50.321855" lon="6.773953">
        <time>2008-01-28T09:13:22Z</time>
      </trkpt>
      <trkpt lat="50.321685" lon="6.773810">
        <ele>418.000000</ele>
        <time>2008-01-28T09:13:22Z</time>
      </trkpt>
      <trkpt lat="50.321685" lon="6.773810">
        <time>2008-01-28T09:13:22Z</time>
      </trkpt>
      <trkpt lat="50.321628" lon="6.774342">
        <time>2008-01-28T09:13:22Z</time>
      </trkpt>
      <trkpt lat="50.321398" lon="6.775083">
        <time>2008-01-28T09:13:22Z</time>
      </trkpt>
      <trkpt lat="50.321398" lon="6.775083">
        <time>2008-01-28T09:13:22Z</time>
      </trkpt>
      <trkpt lat="50.320999" lon="6.775694">
        <time>2008-01-28T09:13:22Z</time>
      </trkpt>
      <trkpt lat="50.320521" lon="6.775939">
        <time>2008-01-28T09:13:22Z</time>
      </trkpt>
      <trkpt lat="50.320521" lon="6.775939">
        <time>2008-01-28T09:13:22Z</time>
      </trkpt>
      <trkpt lat="50.320093" lon="6.775413">
        <time>2008-01-28T09:13:22Z</time>
      </trkpt>
      <trkpt lat="50.319653" lon="6.775307">
        <time>2008-01-28T09:13:22Z</time>
      </trkpt>
      <trkpt lat="50.317988" lon="6.774185">
        <time>2008-01-28T09:13:22Z</time>
      </trkpt>
      <trkpt lat="50.317988" lon="6.774185">
        <time>2008-01-28T09:13:22Z</time>
      </trkpt>
      <trkpt lat="50.317538" lon="6.774248">
        <time>2008-01-28T09:13:22Z</time>
      </trkpt>
      <trkpt lat="50.317565" lon="6.774220">
        <time>2008-01-28T09:13:22Z</time>
      </trkpt>
      <trkpt lat="50.317565" lon="6.774220">
        <time>2008-01-28T09:13:22Z</time>
      </trkpt>
      <trkpt lat="50.317484" lon="6.774219">
        <ele>394.000000</ele>
        <time>2008-01-28T09:13:22Z</time>
      </trkpt>
      <trkpt lat="50.317484" lon="6.774219">
        <time>2008-01-28T09:13:22Z</time>
      </trkpt>
      <trkpt lat="50.317165" lon="6.773624">
        <time>2008-01-28T09:13:22Z</time>
      </trkpt>
      <trkpt lat="50.317005" lon="6.773256">
        <time>2008-01-28T09:13:22Z</time>
      </trkpt>
      <trkpt lat="50.316703" lon="6.772690">
        <time>2008-01-28T09:13:22Z</time>
      </trkpt>
      <trkpt lat="50.316520" lon="6.771858">
        <time>2008-01-28T09:13:22Z</time>
      </trkpt>
      <trkpt lat="50.316415" lon="6.771464">
        <time>2008-01-28T09:13:22Z</time>
      </trkpt>
      <trkpt lat="50.316222" lon="6.770744">
        <time>2008-01-28T09:13:22Z</time>
      </trkpt>
      <trkpt lat="50.315939" lon="6.770066">
        <time>2008-01-28T09:13:22Z</time>
      </trkpt>
      <trkpt lat="50.315673" lon="6.769416">
        <time>2008-01-28T09:13:22Z</time>
      </trkpt>
      <trkpt lat="50.315115" lon="6.768213">
        <time>2008-01-28T09:13:22Z</time>
      </trkpt>
      <trkpt lat="50.314618" lon="6.767166">
        <ele>401.000000</ele>
        <time>2008-01-28T09:13:22Z</time>
      </trkpt>
      <trkpt lat="50.314618" lon="6.767166">
        <time>2008-01-28T09:13:22Z</time>
      </trkpt>
      <trkpt lat="50.314460" lon="6.766715">
        <time>2008-01-28T09:13:22Z</time>
      </trkpt>
      <trkpt lat="50.314300" lon="6.766361">
        <time>2008-01-28T09:13:22Z</time>
      </trkpt>
      <trkpt lat="50.314176" lon="6.766106">
        <time>2008-01-28T09:13:22Z</time>
      </trkpt>
      <trkpt lat="50.313946" lon="6.765513">
        <time>2008-01-28T09:13:22Z</time>
      </trkpt>
      <trkpt lat="50.313743" lon="6.764976">
        <time>2008-01-28T09:13:22Z</time>
      </trkpt>
      <trkpt lat="50.313619" lon="6.764623">
        <time>2008-01-28T09:13:22Z</time>
      </trkpt>
      <trkpt lat="50.313441" lon="6.764312">
        <ele>399.000000</ele>
        <time>2008-01-28T09:13:22Z</time>
      </trkpt>
      <trkpt lat="50.313441" lon="6.764312">
        <time>2008-01-28T09:13:22Z</time>
      </trkpt>
      <trkpt lat="50.313398" lon="6.764156">
        <time>2008-01-28T09:13:22Z</time>
      </trkpt>
      <trkpt lat="50.313382" lon="6.763735">
        <time>2008-01-28T09:13:22Z</time>
      </trkpt>
      <trkpt lat="50.313402" lon="6.763454">
        <time>2008-01-28T09:13:22Z</time>
      </trkpt>
      <trkpt lat="50.313387" lon="6.763047">
        <time>2008-01-28T09:13:22Z</time>
      </trkpt>
      <trkpt lat="50.313390" lon="6.762612">
        <time>2008-01-28T09:13:22Z</time>
      </trkpt>
      <trkpt lat="50.313375" lon="6.762064">
        <time>2008-01-28T09:13:22Z</time>
      </trkpt>
      <trkpt lat="50.313263" lon="6.761445">
        <time>2008-01-28T09:13:22Z</time>
      </trkpt>
      <trkpt lat="50.313067" lon="6.761034">
        <ele>409.000000</ele>
        <time>2008-01-28T09:13:22Z</time>
      </trkpt>
      <trkpt lat="50.313067" lon="6.761034">
        <time>2008-01-28T09:13:22Z</time>
      </trkpt>
      <trkpt lat="50.313017" lon="6.760542">
        <time>2008-01-28T09:13:22Z</time>
      </trkpt>
      <trkpt lat="50.312713" lon="6.760228">
        <time>2008-01-28T09:13:22Z</time>
      </trkpt>
      <trkpt lat="50.312722" lon="6.758881">
        <time>2008-01-28T09:13:22Z</time>
      </trkpt>
      <trkpt lat="50.313016" lon="6.757833">
        <time>2008-01-28T09:13:22Z</time>
      </trkpt>
      <trkpt lat="50.313219" lon="6.757078">
        <time>2008-01-28T09:13:22Z</time>
      </trkpt>
      <trkpt lat="50.313522" lon="6.756128">
        <time>2008-01-28T09:13:22Z</time>
      </trkpt>
      <trkpt lat="50.313407" lon="6.755817">
        <ele>406.000000</ele>
        <time>2008-01-28T09:13:22Z</time>
      </trkpt>
      <trkpt lat="50.313407" lon="6.755817">
        <time>2008-01-28T09:13:22Z</time>
      </trkpt>
      <trkpt lat="50.313229" lon="6.755618">
        <time>2008-01-28T09:13:22Z</time>
      </trkpt>
      <trkpt lat="50.312960" lon="6.755459">
        <time>2008-01-28T09:13:22Z</time>
      </trkpt>
      <trkpt lat="50.312602" lon="6.755201">
        <time>2008-01-28T09:13:22Z</time>
      </trkpt>
      <trkpt lat="50.312243" lon="6.755181">
        <ele>409.000000</ele>
        <time>2008-01-28T09:13:22Z</time>
      </trkpt>
      <trkpt lat="50.312243" lon="6.755181">
        <time>2008-01-28T09:13:22Z</time>
      </trkpt>
      <trkpt lat="50.311789" lon="6.754360">
        <ele>412.000000</ele>
        <time>2008-01-28T09:13:22Z</time>
      </trkpt>
      <trkpt lat="50.311789" lon="6.754360">
        <time>2008-01-28T09:13:22Z</time>
      </trkpt>
      <trkpt lat="50.311917" lon="6.754025">
        <time>2008-01-28T09:13:22Z</time>
      </trkpt>
      <trkpt lat="50.312451" lon="6.753528">
        <time>2008-01-28T09:13:22Z</time>
      </trkpt>
      <trkpt lat="50.312842" lon="6.752832">
        <time>2008-01-28T09:13:22Z</time>
      </trkpt>
      <trkpt lat="50.313303" lon="6.752432">
        <ele>406.000000</ele>
        <time>2008-01-28T09:13:22Z</time>
      </trkpt>
      <trkpt lat="50.313303" lon="6.752432">
        <time>2008-01-28T09:13:22Z</time>
      </trkpt>
      <trkpt lat="50.313526" lon="6.752688">
        <time>2008-01-28T09:13:22Z</time>
      </trkpt>
      <trkpt lat="50.313629" lon="6.753462">
        <ele>408.000000</ele>
        <time>2008-01-28T09:13:22Z</time>
      </trkpt>
      <trkpt lat="50.313629" lon="6.753462">
        <time>2008-01-28T09:13:22Z</time>
      </trkpt>
      <trkpt lat="50.313791" lon="6.753437">
        <time>2008-01-28T09:13:22Z</time>
      </trkpt>
      <trkpt lat="50.313864" lon="6.753353">
        <time>2008-01-28T09:13:22Z</time>
      </trkpt>
      <trkpt lat="50.313930" lon="6.752891">
        <ele>420.000000</ele>
        <time>2008-01-28T09:13:22Z</time>
      </trkpt>
      <trkpt lat="50.313930" lon="6.752891">
        <time>2008-01-28T09:13:22Z</time>
      </trkpt>
      <trkpt lat="50.313869" lon="6.752581">
        <time>2008-01-28T09:13:22Z</time>
      </trkpt>
      <trkpt lat="50.313869" lon="6.752581">
        <time>2008-01-28T09:13:22Z</time>
      </trkpt>
      <trkpt lat="50.313757" lon="6.751751">
        <time>2008-01-28T09:13:22Z</time>
      </trkpt>
      <trkpt lat="50.313757" lon="6.751751">
        <time>2008-01-28T09:13:22Z</time>
      </trkpt>
      <trkpt lat="50.313516" lon="6.750147">
        <time>2008-01-28T09:13:22Z</time>
      </trkpt>
      <trkpt lat="50.313299" lon="6.748964">
        <time>2008-01-28T09:13:22Z</time>
      </trkpt>
      <trkpt lat="50.313104" lon="6.748484">
        <ele>429.000000</ele>
        <time>2008-01-28T09:13:22Z</time>
      </trkpt>
      <trkpt lat="50.313104" lon="6.748484">
        <time>2008-01-28T09:13:22Z</time>
      </trkpt>
      <trkpt lat="50.312977" lon="6.747302">
        <time>2008-01-28T09:13:22Z</time>
      </trkpt>
      <trkpt lat="50.313209" lon="6.746169">
        <ele>412.000000</ele>
        <time>2008-01-28T09:13:22Z</time>
      </trkpt>
      <trkpt lat="50.313209" lon="6.746169">
        <time>2008-01-28T09:13:22Z</time>
      </trkpt>
      <trkpt lat="50.313607" lon="6.745782">
        <time>2008-01-28T09:13:22Z</time>
      </trkpt>
      <trkpt lat="50.314138" lon="6.745594">
        <ele>417.000000</ele>
        <time>2008-01-28T09:13:22Z</time>
      </trkpt>
      <trkpt lat="50.314138" lon="6.745594">
        <time>2008-01-28T09:13:22Z</time>
      </trkpt>
      <trkpt lat="50.314454" lon="6.745486">
        <time>2008-01-28T09:13:22Z</time>
      </trkpt>
      <trkpt lat="50.314698" lon="6.745252">
        <time>2008-01-28T09:13:22Z</time>
      </trkpt>
      <trkpt lat="50.315007" lon="6.744765">
        <time>2008-01-28T09:13:22Z</time>
      </trkpt>
      <trkpt lat="50.315324" lon="6.744419">
        <time>2008-01-28T09:13:22Z</time>
      </trkpt>
      <trkpt lat="50.315488" lon="6.744000">
        <time>2008-01-28T09:13:22Z</time>
      </trkpt>
      <trkpt lat="50.315534" lon="6.743847">
        <ele>439.000000</ele>
        <time>2008-01-28T09:13:22Z</time>
      </trkpt>
      <trkpt lat="50.315534" lon="6.743847">
        <time>2008-01-28T09:13:22Z</time>
      </trkpt>
      <trkpt lat="50.315878" lon="6.743529">
        <time>2008-01-28T09:13:22Z</time>
      </trkpt>
      <trkpt lat="50.315937" lon="6.742659">
        <time>2008-01-28T09:13:22Z</time>
      </trkpt>
      <trkpt lat="50.315914" lon="6.742041">
        <time>2008-01-28T09:13:22Z</time>
      </trkpt>
      <trkpt lat="50.315891" lon="6.741479">
        <time>2008-01-28T09:13:22Z</time>
      </trkpt>
      <trkpt lat="50.315891" lon="6.741479">
        <time>2008-01-28T09:13:22Z</time>
      </trkpt>
      <trkpt lat="50.315983" lon="6.741158">
        <time>2008-01-28T09:13:22Z</time>
      </trkpt>
      <trkpt lat="50.316500" lon="6.740478">
        <ele>454.000000</ele>
        <time>2008-01-28T09:13:22Z</time>
      </trkpt>
      <trkpt lat="50.316500" lon="6.740478">
        <time>2008-01-28T09:13:22Z</time>
      </trkpt>
      <trkpt lat="50.315599" lon="6.739327">
        <time>2008-01-28T09:13:22Z</time>
      </trkpt>
      <trkpt lat="50.315599" lon="6.739327">
        <time>2008-01-28T09:13:22Z</time>
      </trkpt>
      <trkpt lat="50.314813" lon="6.738430">
        <time>2008-01-28T09:13:22Z</time>
      </trkpt>
      <trkpt lat="50.314813" lon="6.738430">
        <time>2008-01-28T09:13:22Z</time>
      </trkpt>
      <trkpt lat="50.314287" lon="6.737832">
        <time>2008-01-28T09:13:22Z</time>
      </trkpt>
      <trkpt lat="50.314207" lon="6.737719">
        <ele>456.000000</ele>
        <time>2008-01-28T09:13:22Z</time>
      </trkpt>
      <trkpt lat="50.314207" lon="6.737719">
        <time>2008-01-28T09:13:22Z</time>
      </trkpt>
      <trkpt lat="50.313939" lon="6.737420">
        <time>2008-01-28T09:13:22Z</time>
      </trkpt>
      <trkpt lat="50.313690" lon="6.737009">
        <time>2008-01-28T09:13:22Z</time>
      </trkpt>
      <trkpt lat="50.312801" lon="6.735422">
        <ele>459.000000</ele>
        <time>2008-01-28T09:13:22Z</time>
      </trkpt>
      <trkpt lat="50.312801" lon="6.735422">
        <time>2008-01-28T09:13:22Z</time>
      </trkpt>
      <trkpt lat="50.313242" lon="6.735317">
        <time>2008-01-28T09:13:22Z</time>
      </trkpt>
      <trkpt lat="50.313576" lon="6.735126">
        <ele>465.000000</ele>
        <time>2008-01-28T09:13:22Z</time>
      </trkpt>
      <trkpt lat="50.313576" lon="6.735126">
        <time>2008-01-28T09:13:22Z</time>
      </trkpt>
      <trkpt lat="50.313128" lon="6.734866">
        <time>2008-01-28T09:13:22Z</time>
      </trkpt>
      <trkpt lat="50.312879" lon="6.734413">
        <time>2008-01-28T09:13:22Z</time>
      </trkpt>
      <trkpt lat="50.312688" lon="6.733287">
        <time>2008-01-28T09:13:22Z</time>
      </trkpt>
      <trkpt lat="50.312564" lon="6.733018">
        <ele>477.000000</ele>
        <time>2008-01-28T09:13:22Z</time>
      </trkpt>
      <trkpt lat="50.312564" lon="6.733018">
        <time>2008-01-28T09:13:22Z</time>
      </trkpt>
      <trkpt lat="50.312422" lon="6.732735">
        <time>2008-01-28T09:13:22Z</time>
      </trkpt>
      <trkpt lat="50.312126" lon="6.732632">
        <time>2008-01-28T09:13:22Z</time>
      </trkpt>
      <trkpt lat="50.311821" lon="6.732501">
        <ele>473.000000</ele>
        <time>2008-01-28T09:13:22Z</time>
      </trkpt>
      <trkpt lat="50.311821" lon="6.732501">
        <time>2008-01-28T09:13:22Z</time>
      </trkpt>
      <trkpt lat="50.311623" lon="6.732554">
        <time>2008-01-28T09:13:22Z</time>
      </trkpt>
      <trkpt lat="50.311623" lon="6.732554">
        <time>2008-01-28T09:13:22Z</time>
      </trkpt>
      <trkpt lat="50.311550" lon="6.732764">
        <time>2008-01-28T09:13:22Z</time>
      </trkpt>
      <trkpt lat="50.311397" lon="6.732818">
        <time>2008-01-28T09:13:22Z</time>
      </trkpt>
      <trkpt lat="50.311272" lon="6.732633">
        <time>2008-01-28T09:13:22Z</time>
      </trkpt>
      <trkpt lat="50.311252" lon="6.732928">
        <ele>454.000000</ele>
        <time>2008-01-28T09:13:22Z</time>
      </trkpt>
      <trkpt lat="50.311252" lon="6.732928">
        <time>2008-01-28T09:13:22Z</time>
      </trkpt>
      <trkpt lat="50.311127" lon="6.732870">
        <time>2008-01-28T09:13:22Z</time>
      </trkpt>
      <trkpt lat="50.310824" lon="6.732360">
        <ele>451.000000</ele>
        <time>2008-01-28T09:13:22Z</time>
      </trkpt>
      <trkpt lat="50.310824" lon="6.732360">
        <time>2008-01-28T09:13:22Z</time>
      </trkpt>
      <trkpt lat="50.310754" lon="6.732134">
        <time>2008-01-28T09:13:22Z</time>
      </trkpt>
      <trkpt lat="50.310756" lon="6.731769">
        <time>2008-01-28T09:13:22Z</time>
      </trkpt>
      <trkpt lat="50.310756" lon="6.731769">
        <time>2008-01-28T09:13:22Z</time>
      </trkpt>
      <trkpt lat="50.311117" lon="6.731606">
        <ele>445.000000</ele>
        <time>2008-01-28T09:13:22Z</time>
      </trkpt>
      <trkpt lat="50.311117" lon="6.731606">
        <time>2008-01-28T09:13:22Z</time>
      </trkpt>
      <trkpt lat="50.311315" lon="6.731553">
        <time>2008-01-28T09:13:22Z</time>
      </trkpt>
      <trkpt lat="50.311406" lon="6.731386">
        <time>2008-01-28T09:13:22Z</time>
      </trkpt>
      <trkpt lat="50.311452" lon="6.731260">
        <time>2008-01-28T09:13:22Z</time>
      </trkpt>
      <trkpt lat="50.311471" lon="6.731078">
        <ele>445.000000</ele>
        <time>2008-01-28T09:13:22Z</time>
      </trkpt>
      <trkpt lat="50.311471" lon="6.731078">
        <time>2008-01-28T09:13:22Z</time>
      </trkpt>
      <trkpt lat="50.311480" lon="6.730952">
        <time>2008-01-28T09:13:22Z</time>
      </trkpt>
      <trkpt lat="50.311446" lon="6.730671">
        <time>2008-01-28T09:13:22Z</time>
      </trkpt>
      <trkpt lat="50.311304" lon="6.730402">
        <time>2008-01-28T09:13:22Z</time>
      </trkpt>
      <trkpt lat="50.311134" lon="6.730273">
        <time>2008-01-28T09:13:22Z</time>
      </trkpt>
      <trkpt lat="50.311134" lon="6.730273">
        <time>2008-01-28T09:13:22Z</time>
      </trkpt>
      <trkpt lat="50.311036" lon="6.730173">
        <time>2008-01-28T09:13:22Z</time>
      </trkpt>
      <trkpt lat="50.310955" lon="6.730186">
        <ele>434.000000</ele>
        <time>2008-01-28T09:13:22Z</time>
      </trkpt>
      <trkpt lat="50.310955" lon="6.730186">
        <time>2008-01-28T09:13:22Z</time>
      </trkpt>
      <trkpt lat="50.310839" lon="6.729945">
        <time>2008-01-28T09:13:22Z</time>
      </trkpt>
      <trkpt lat="50.310607" lon="6.729773">
        <ele>438.000000</ele>
        <time>2008-01-28T09:13:22Z</time>
      </trkpt>
      <trkpt lat="50.310607" lon="6.729773">
        <time>2008-01-28T09:13:22Z</time>
      </trkpt>
      <trkpt lat="50.310437" lon="6.729616">
        <time>2008-01-28T09:13:22Z</time>
      </trkpt>
      <trkpt lat="50.309873" lon="6.729200">
        <ele>443.000000</ele>
        <time>2008-01-28T09:13:22Z</time>
      </trkpt>
      <trkpt lat="50.309873" lon="6.729200">
        <time>2008-01-28T09:13:22Z</time>
      </trkpt>
      <trkpt lat="50.310352" lon="6.728843">
        <time>2008-01-28T09:13:22Z</time>
      </trkpt>
      <trkpt lat="50.310506" lon="6.728620">
        <ele>443.000000</ele>
        <time>2008-01-28T09:13:22Z</time>
      </trkpt>
      <trkpt lat="50.310506" lon="6.728620">
        <time>2008-01-28T09:13:22Z</time>
      </trkpt>
      <trkpt lat="50.310643" lon="6.728356">
        <time>2008-01-28T09:13:22Z</time>
      </trkpt>
      <trkpt lat="50.310745" lon="6.727810">
        <time>2008-01-28T09:13:22Z</time>
      </trkpt>
      <trkpt lat="50.310787" lon="6.726842">
        <time>2008-01-28T09:13:22Z</time>
      </trkpt>
      <trkpt lat="50.310787" lon="6.726842">
        <time>2008-01-28T09:13:22Z</time>
      </trkpt>
      <trkpt lat="50.310482" lon="6.726753">
        <time>2008-01-28T09:13:22Z</time>
      </trkpt>
      <trkpt lat="50.310330" lon="6.726540">
        <time>2008-01-28T09:13:22Z</time>
      </trkpt>
      <trkpt lat="50.310396" lon="6.726050">
        <time>2008-01-28T09:13:22Z</time>
      </trkpt>
      <trkpt lat="50.310505" lon="6.725939">
        <time>2008-01-28T09:13:22Z</time>
      </trkpt>
      <trkpt lat="50.310649" lon="6.725927">
        <time>2008-01-28T09:13:22Z</time>
      </trkpt>
      <trkpt lat="50.310793" lon="6.725901">
        <ele>439.000000</ele>
        <time>2008-01-28T09:13:22Z</time>
      </trkpt>
      <trkpt lat="50.310793" lon="6.725901">
        <time>2008-01-28T09:13:22Z</time>
      </trkpt>
      <trkpt lat="50.310811" lon="6.723052">
        <ele>452.000000</ele>
        <time>2008-01-28T09:13:22Z</time>
      </trkpt>
      <trkpt lat="50.310811" lon="6.723052">
        <time>2008-01-28T09:13:22Z</time>
      </trkpt>
      <trkpt lat="50.310793" lon="6.721634">
        <time>2008-01-28T09:13:22Z</time>
      </trkpt>
      <trkpt lat="50.310793" lon="6.721634">
        <time>2008-01-28T09:13:22Z</time>
      </trkpt>
      <trkpt lat="50.310701" lon="6.718965">
        <time>2008-01-28T09:13:22Z</time>
      </trkpt>
      <trkpt lat="50.310701" lon="6.718965">
        <time>2008-01-28T09:13:22Z</time>
      </trkpt>
      <trkpt lat="50.310664" lon="6.716241">
        <ele>496.000000</ele>
        <time>2008-01-28T09:13:22Z</time>
      </trkpt>
      <trkpt lat="50.310664" lon="6.716241">
        <time>2008-01-28T09:13:22Z</time>
      </trkpt>
      <trkpt lat="50.311800" lon="6.715753">
        <time>2008-01-28T09:13:22Z</time>
      </trkpt>
      <trkpt lat="50.311890" lon="6.715726">
        <ele>493.000000</ele>
        <time>2008-01-28T09:13:22Z</time>
      </trkpt>
      <trkpt lat="50.311890" lon="6.715726">
        <time>2008-01-28T09:13:22Z</time>
      </trkpt>
      <trkpt lat="50.312964" lon="6.716486">
        <time>2008-01-28T09:13:22Z</time>
      </trkpt>
      <trkpt lat="50.312964" lon="6.716486">
        <time>2008-01-28T09:13:22Z</time>
      </trkpt>
      <trkpt lat="50.313564" lon="6.716944">
        <time>2008-01-28T09:13:22Z</time>
      </trkpt>
      <trkpt lat="50.313581" lon="6.717001">
        <time>2008-01-28T09:13:22Z</time>
      </trkpt>
      <trkpt lat="50.313581" lon="6.717001">
        <time>2008-01-28T09:13:22Z</time>
      </trkpt>
      <trkpt lat="50.313622" lon="6.717619">
        <ele>480.000000</ele>
        <time>2008-01-28T09:13:22Z</time>
      </trkpt>
      <trkpt lat="50.313622" lon="6.717619">
        <time>2008-01-28T09:13:22Z</time>
      </trkpt>
      <trkpt lat="50.313974" lon="6.717498">
        <time>2008-01-28T09:13:22Z</time>
      </trkpt>
      <trkpt lat="50.314307" lon="6.717363">
        <time>2008-01-28T09:13:22Z</time>
      </trkpt>
      <trkpt lat="50.314667" lon="6.717284">
        <time>2008-01-28T09:13:22Z</time>
      </trkpt>
      <trkpt lat="50.314955" lon="6.717246">
        <ele>483.000000</ele>
        <time>2008-01-28T09:13:22Z</time>
      </trkpt>
      <trkpt lat="50.314955" lon="6.717246">
        <time>2008-01-28T09:13:22Z</time>
      </trkpt>
      <trkpt lat="50.314858" lon="6.717006">
        <time>2008-01-28T09:13:22Z</time>
      </trkpt>
      <trkpt lat="50.314742" lon="6.716737">
        <time>2008-01-28T09:13:22Z</time>
      </trkpt>
      <trkpt lat="50.314583" lon="6.716412">
        <time>2008-01-28T09:13:22Z</time>
      </trkpt>
      <trkpt lat="50.314440" lon="6.716171">
        <time>2008-01-28T09:13:22Z</time>
      </trkpt>
      <trkpt lat="50.314254" lon="6.715846">
        <time>2008-01-28T09:13:22Z</time>
      </trkpt>
      <trkpt lat="50.314336" lon="6.715580">
        <time>2008-01-28T09:13:22Z</time>
      </trkpt>
      <trkpt lat="50.314427" lon="6.715413">
        <ele>506.000000</ele>
        <time>2008-01-28T09:13:22Z</time>
      </trkpt>
      <trkpt lat="50.314427" lon="6.715413">
        <time>2008-01-28T09:13:22Z</time>
      </trkpt>
      <trkpt lat="50.314691" lon="6.714813">
        <ele>508.000000</ele>
        <time>2008-01-28T09:13:22Z</time>
      </trkpt>
      <trkpt lat="50.314691" lon="6.714813">
        <time>2008-01-28T09:13:22Z</time>
      </trkpt>
      <trkpt lat="50.314774" lon="6.714576">
        <time>2008-01-28T09:13:22Z</time>
      </trkpt>
      <trkpt lat="50.314936" lon="6.714452">
        <time>2008-01-28T09:13:22Z</time>
      </trkpt>
      <trkpt lat="50.315018" lon="6.714299">
        <time>2008-01-28T09:13:22Z</time>
      </trkpt>
      <trkpt lat="50.315100" lon="6.714089">
        <time>2008-01-28T09:13:22Z</time>
      </trkpt>
      <trkpt lat="50.315121" lon="6.713682">
        <time>2008-01-28T09:13:22Z</time>
      </trkpt>
      <trkpt lat="50.315069" lon="6.713401">
        <time>2008-01-28T09:13:22Z</time>
      </trkpt>
      <trkpt lat="50.315061" lon="6.713134">
        <time>2008-01-28T09:13:22Z</time>
      </trkpt>
      <trkpt lat="50.315108" lon="6.712840">
        <ele>516.000000</ele>
        <time>2008-01-28T09:13:22Z</time>
      </trkpt>
      <trkpt lat="50.315108" lon="6.712840">
        <time>2008-01-28T09:13:22Z</time>
      </trkpt>
      <trkpt lat="50.315064" lon="6.712741">
        <time>2008-01-28T09:13:22Z</time>
      </trkpt>
      <trkpt lat="50.314806" lon="6.712190">
        <time>2008-01-28T09:13:22Z</time>
      </trkpt>
      <trkpt lat="50.314230" lon="6.710945">
        <time>2008-01-28T09:13:22Z</time>
      </trkpt>
      <trkpt lat="50.313466" lon="6.709390">
        <time>2008-01-28T09:13:22Z</time>
      </trkpt>
      <trkpt lat="50.313351" lon="6.709149">
        <ele>538.000000</ele>
        <time>2008-01-28T09:13:22Z</time>
      </trkpt>
      <trkpt lat="50.313351" lon="6.709149">
        <time>2008-01-28T09:13:22Z</time>
      </trkpt>
      <trkpt lat="50.312667" lon="6.707693">
        <time>2008-01-28T09:13:22Z</time>
      </trkpt>
      <trkpt lat="50.312180" lon="6.706549">
        <time>2008-01-28T09:13:22Z</time>
      </trkpt>
      <trkpt lat="50.311586" lon="6.705066">
        <time>2008-01-28T09:13:22Z</time>
      </trkpt>
      <trkpt lat="50.311373" lon="6.704599">
        <ele>527.000000</ele>
        <time>2008-01-28T09:13:22Z</time>
      </trkpt>
      <trkpt lat="50.311373" lon="6.704599">
        <time>2008-01-28T09:13:22Z</time>
      </trkpt>
      <trkpt lat="50.310993" lon="6.703611">
        <time>2008-01-28T09:13:22Z</time>
      </trkpt>
      <trkpt lat="50.310370" lon="6.702591">
        <time>2008-01-28T09:13:22Z</time>
      </trkpt>
      <trkpt lat="50.310191" lon="6.702350">
        <ele>516.000000</ele>
        <time>2008-01-28T09:13:22Z</time>
      </trkpt>
      <trkpt lat="50.310191" lon="6.702350">
        <time>2008-01-28T09:13:22Z</time>
      </trkpt>
      <trkpt lat="50.310084" lon="6.702236">
        <time>2008-01-28T09:13:22Z</time>
      </trkpt>
      <trkpt lat="50.309411" lon="6.702072">
        <time>2008-01-28T09:13:22Z</time>
      </trkpt>
      <trkpt lat="50.309277" lon="6.701859">
        <ele>513.000000</ele>
        <time>2008-01-28T09:13:22Z</time>
      </trkpt>
      <trkpt lat="50.309277" lon="6.701859">
        <time>2008-01-28T09:13:22Z</time>
      </trkpt>
      <trkpt lat="50.309197" lon="6.701731">
        <time>2008-01-28T09:13:22Z</time>
      </trkpt>
      <trkpt lat="50.307255" lon="6.703219">
        <ele>491.000000</ele>
        <time>2008-01-28T09:13:22Z</time>
      </trkpt>
      <trkpt lat="50.307255" lon="6.703219">
        <time>2008-01-28T09:13:22Z</time>
      </trkpt>
      <trkpt lat="50.306981" lon="6.702527">
        <time>2008-01-28T09:13:22Z</time>
      </trkpt>
      <trkpt lat="50.306609" lon="6.701637">
        <ele>495.000000</ele>
        <time>2008-01-28T09:13:22Z</time>
      </trkpt>
      <trkpt lat="50.306609" lon="6.701637">
        <time>2008-01-28T09:13:22Z</time>
      </trkpt>
      <trkpt lat="50.305772" lon="6.700235">
        <time>2008-01-28T09:13:22Z</time>
      </trkpt>
      <trkpt lat="50.305736" lon="6.700207">
        <ele>494.000000</ele>
        <time>2008-01-28T09:13:22Z</time>
      </trkpt>
      <trkpt lat="50.305736" lon="6.700207">
        <time>2008-01-28T09:13:22Z</time>
      </trkpt>
      <trkpt lat="50.305146" lon="6.699679">
        <time>2008-01-28T09:13:22Z</time>
      </trkpt>
      <trkpt lat="50.304492" lon="6.699402">
        <ele>493.000000</ele>
        <time>2008-01-28T09:13:22Z</time>
      </trkpt>
      <trkpt lat="50.304492" lon="6.699402">
        <time>2008-01-28T09:13:22Z</time>
      </trkpt>
      <trkpt lat="50.304393" lon="6.699303">
        <time>2008-01-28T09:13:22Z</time>
      </trkpt>
      <trkpt lat="50.304196" lon="6.699145">
        <time>2008-01-28T09:13:22Z</time>
      </trkpt>
      <trkpt lat="50.304089" lon="6.699003">
        <ele>506.000000</ele>
        <time>2008-01-28T09:13:22Z</time>
      </trkpt>
      <trkpt lat="50.304089" lon="6.699003">
        <time>2008-01-28T09:13:22Z</time>
      </trkpt>
      <trkpt lat="50.303965" lon="6.698791">
        <time>2008-01-28T09:13:22Z</time>
      </trkpt>
      <trkpt lat="50.303873" lon="6.699084">
        <time>2008-01-28T09:13:22Z</time>
      </trkpt>
      <trkpt lat="50.303799" lon="6.699420">
        <time>2008-01-28T09:13:22Z</time>
      </trkpt>
      <trkpt lat="50.303672" lon="6.699601">
        <ele>500.000000</ele>
        <time>2008-01-28T09:13:22Z</time>
      </trkpt>
      <trkpt lat="50.303672" lon="6.699601">
        <time>2008-01-28T09:13:22Z</time>
      </trkpt>
      <trkpt lat="50.303546" lon="6.699655">
        <time>2008-01-28T09:13:22Z</time>
      </trkpt>
      <trkpt lat="50.303473" lon="6.699851">
        <time>2008-01-28T09:13:22Z</time>
      </trkpt>
      <trkpt lat="50.303364" lon="6.699989">
        <time>2008-01-28T09:13:22Z</time>
      </trkpt>
      <trkpt lat="50.303256" lon="6.700128">
        <ele>504.000000</ele>
        <time>2008-01-28T09:13:22Z</time>
      </trkpt>
      <trkpt lat="50.303256" lon="6.700128">
        <time>2008-01-28T09:13:22Z</time>
      </trkpt>
      <trkpt lat="50.303068" lon="6.699985">
        <time>2008-01-28T09:13:22Z</time>
      </trkpt>
      <trkpt lat="50.303068" lon="6.699985">
        <time>2008-01-28T09:13:22Z</time>
      </trkpt>
      <trkpt lat="50.302656" lon="6.699614">
        <time>2008-01-28T09:13:22Z</time>
      </trkpt>
      <trkpt lat="50.302191" lon="6.699312">
        <time>2008-01-28T09:13:22Z</time>
      </trkpt>
      <trkpt lat="50.301731" lon="6.699432">
        <time>2008-01-28T09:13:22Z</time>
      </trkpt>
      <trkpt lat="50.301506" lon="6.699485">
        <ele>497.000000</ele>
        <time>2008-01-28T09:13:22Z</time>
      </trkpt>
      <trkpt lat="50.301506" lon="6.699485">
        <time>2008-01-28T09:13:22Z</time>
      </trkpt>
      <trkpt lat="50.300794" lon="6.699769">
        <time>2008-01-28T09:13:22Z</time>
      </trkpt>
      <trkpt lat="50.300325" lon="6.700001">
        <ele>495.000000</ele>
        <time>2008-01-28T09:13:22Z</time>
      </trkpt>
      <trkpt lat="50.300325" lon="6.700001">
        <time>2008-01-28T09:13:22Z</time>
      </trkpt>
      <trkpt lat="50.300235" lon="6.700056">
        <time>2008-01-28T09:13:22Z</time>
      </trkpt>
      <trkpt lat="50.299739" lon="6.700343">
        <time>2008-01-28T09:13:22Z</time>
      </trkpt>
      <trkpt lat="50.299064" lon="6.700389">
        <ele>471.000000</ele>
        <time>2008-01-28T09:13:22Z</time>
      </trkpt>
      <trkpt lat="50.299064" lon="6.700389">
        <time>2008-01-28T09:13:22Z</time>
      </trkpt>
      <trkpt lat="50.298993" lon="6.700360">
        <time>2008-01-28T09:13:22Z</time>
      </trkpt>
      <trkpt lat="50.298760" lon="6.700231">
        <time>2008-01-28T09:13:22Z</time>
      </trkpt>
      <trkpt lat="50.298253" lon="6.699283">
        <ele>469.000000</ele>
        <time>2008-01-28T09:13:22Z</time>
      </trkpt>
      <trkpt lat="50.298253" lon="6.699283">
        <time>2008-01-28T09:13:22Z</time>
      </trkpt>
      <trkpt lat="50.298108" lon="6.699421">
        <time>2008-01-28T09:13:22Z</time>
      </trkpt>
      <trkpt lat="50.297982" lon="6.699573">
        <time>2008-01-28T09:13:22Z</time>
      </trkpt>
      <trkpt lat="50.297865" lon="6.699586">
        <time>2008-01-28T09:13:22Z</time>
      </trkpt>
      <trkpt lat="50.297766" lon="6.699556">
        <time>2008-01-28T09:13:22Z</time>
      </trkpt>
      <trkpt lat="50.297766" lon="6.699556">
        <time>2008-01-28T09:13:22Z</time>
      </trkpt>
      <trkpt lat="50.297835" lon="6.698589">
        <time>2008-01-28T09:13:22Z</time>
      </trkpt>
      <trkpt lat="50.297848" lon="6.697873">
        <time>2008-01-28T09:13:22Z</time>
      </trkpt>
      <trkpt lat="50.297903" lon="6.696232">
        <ele>460.000000</ele>
        <time>2008-01-28T09:13:22Z</time>
      </trkpt>
      <trkpt lat="50.297903" lon="6.696232">
        <time>2008-01-28T09:13:22Z</time>
      </trkpt>
      <trkpt lat="50.297731" lon="6.696412">
        <time>2008-01-28T09:13:22Z</time>
      </trkpt>
      <trkpt lat="50.297541" lon="6.696578">
        <time>2008-01-28T09:13:22Z</time>
      </trkpt>
      <trkpt lat="50.297369" lon="6.696744">
        <ele>460.000000</ele>
        <time>2008-01-28T09:13:22Z</time>
      </trkpt>
      <trkpt lat="50.297369" lon="6.696744">
        <time>2008-01-28T09:13:22Z</time>
      </trkpt>
      <trkpt lat="50.297311" lon="6.696055">
        <time>2008-01-28T09:13:22Z</time>
      </trkpt>
      <trkpt lat="50.297479" lon="6.694991">
        <ele>472.000000</ele>
        <time>2008-01-28T09:13:22Z</time>
      </trkpt>
      <trkpt lat="50.297479" lon="6.694991">
        <time>2008-01-28T09:13:22Z</time>
      </trkpt>
      <trkpt lat="50.297181" lon="6.695099">
        <time>2008-01-28T09:13:22Z</time>
      </trkpt>
      <trkpt lat="50.297010" lon="6.695181">
        <time>2008-01-28T09:13:22Z</time>
      </trkpt>
      <trkpt lat="50.296741" lon="6.695135">
        <ele>474.000000</ele>
        <time>2008-01-28T09:13:22Z</time>
      </trkpt>
      <trkpt lat="50.296741" lon="6.695135">
        <time>2008-01-28T09:13:22Z</time>
      </trkpt>
      <trkpt lat="50.296598" lon="6.694992">
        <time>2008-01-28T09:13:22Z</time>
      </trkpt>
      <trkpt lat="50.296032" lon="6.693412">
        <time>2008-01-28T09:13:22Z</time>
      </trkpt>
      <trkpt lat="50.296032" lon="6.693412">
        <time>2008-01-28T09:13:22Z</time>
      </trkpt>
      <trkpt lat="50.296494" lon="6.692745">
        <ele>487.000000</ele>
        <time>2008-01-28T09:13:22Z</time>
      </trkpt>
      <trkpt lat="50.296494" lon="6.692745">
        <time>2008-01-28T09:13:22Z</time>
      </trkpt>
      <trkpt lat="50.296113" lon="6.691911">
        <time>2008-01-28T09:13:22Z</time>
      </trkpt>
      <trkpt lat="50.295715" lon="6.690839">
        <ele>484.000000</ele>
        <time>2008-01-28T09:13:22Z</time>
      </trkpt>
      <trkpt lat="50.295715" lon="6.690839">
        <time>2008-01-28T09:13:22Z</time>
      </trkpt>
      <trkpt lat="50.294811" lon="6.688637">
        <time>2008-01-28T09:13:22Z</time>
      </trkpt>
      <trkpt lat="50.294730" lon="6.688523">
        <ele>486.000000</ele>
        <time>2008-01-28T09:13:22Z</time>
      </trkpt>
      <trkpt lat="50.294730" lon="6.688523">
        <time>2008-01-28T09:13:22Z</time>
      </trkpt>
      <trkpt lat="50.294401" lon="6.687901">
        <time>2008-01-28T09:13:22Z</time>
      </trkpt>
      <trkpt lat="50.294117" lon="6.687293">
        <time>2008-01-28T09:13:22Z</time>
      </trkpt>
      <trkpt lat="50.293869" lon="6.686630">
        <ele>483.000000</ele>
        <time>2008-01-28T09:13:22Z</time>
      </trkpt>
      <trkpt lat="50.293869" lon="6.686630">
        <time>2008-01-28T09:13:22Z</time>
      </trkpt>
      <trkpt lat="50.294403" lon="6.686077">
        <time>2008-01-28T09:13:22Z</time>
      </trkpt>
      <trkpt lat="50.294819" lon="6.685620">
        <time>2008-01-28T09:13:22Z</time>
      </trkpt>
      <trkpt lat="50.294846" lon="6.685634">
        <ele>494.000000</ele>
        <time>2008-01-28T09:13:22Z</time>
      </trkpt>
      <trkpt lat="50.294846" lon="6.685634">
        <time>2008-01-28T09:13:22Z</time>
      </trkpt>
      <trkpt lat="50.293659" lon="6.682768">
        <time>2008-01-28T09:13:22Z</time>
      </trkpt>
      <trkpt lat="50.293429" lon="6.682091">
        <time>2008-01-28T09:13:22Z</time>
      </trkpt>
      <trkpt lat="50.293429" lon="6.682091">
        <time>2008-01-28T09:13:22Z</time>
      </trkpt>
      <trkpt lat="50.292508" lon="6.679735">
        <ele>505.000000</ele>
        <time>2008-01-28T09:13:22Z</time>
      </trkpt>
      <trkpt lat="50.292508" lon="6.679735">
        <time>2008-01-28T09:13:22Z</time>
      </trkpt>
      <trkpt lat="50.292446" lon="6.679523">
        <time>2008-01-28T09:13:22Z</time>
      </trkpt>
      <trkpt lat="50.292530" lon="6.678963">
        <time>2008-01-28T09:13:22Z</time>
      </trkpt>
      <trkpt lat="50.292569" lon="6.678444">
        <time>2008-01-28T09:13:22Z</time>
      </trkpt>
      <trkpt lat="50.292535" lon="6.678121">
        <ele>505.000000</ele>
        <time>2008-01-28T09:13:22Z</time>
      </trkpt>
      <trkpt lat="50.292535" lon="6.678121">
        <time>2008-01-28T09:13:22Z</time>
      </trkpt>
      <trkpt lat="50.292501" lon="6.677826">
        <time>2008-01-28T09:13:22Z</time>
      </trkpt>
      <trkpt lat="50.291968" lon="6.676654">
        <time>2008-01-28T09:13:22Z</time>
      </trkpt>
      <trkpt lat="50.291737" lon="6.676271">
        <time>2008-01-28T09:13:22Z</time>
      </trkpt>
      <trkpt lat="50.291146" lon="6.675884">
        <time>2008-01-28T09:13:22Z</time>
      </trkpt>
      <trkpt lat="50.291038" lon="6.675812">
        <time>2008-01-28T09:13:22Z</time>
      </trkpt>
      <trkpt lat="50.291038" lon="6.675812">
        <time>2008-01-28T09:13:22Z</time>
      </trkpt>
      <trkpt lat="50.290903" lon="6.675909">
        <time>2008-01-28T09:13:22Z</time>
      </trkpt>
      <trkpt lat="50.290740" lon="6.676033">
        <ele>465.000000</ele>
        <time>2008-01-28T09:13:22Z</time>
      </trkpt>
      <trkpt lat="50.290740" lon="6.676033">
        <time>2008-01-28T09:13:22Z</time>
      </trkpt>
      <trkpt lat="50.290571" lon="6.675834">
        <time>2008-01-28T09:13:22Z</time>
      </trkpt>
      <trkpt lat="50.290402" lon="6.675495">
        <ele>469.000000</ele>
        <time>2008-01-28T09:13:22Z</time>
      </trkpt>
      <trkpt lat="50.290402" lon="6.675495">
        <time>2008-01-28T09:13:22Z</time>
      </trkpt>
      <trkpt lat="50.289919" lon="6.675039">
        <ele>468.000000</ele>
        <time>2008-01-28T09:13:22Z</time>
      </trkpt>
      <trkpt lat="50.289919" lon="6.675039">
        <time>2008-01-28T09:13:22Z</time>
      </trkpt>
      <trkpt lat="50.290002" lon="6.674717">
        <time>2008-01-28T09:13:22Z</time>
      </trkpt>
      <trkpt lat="50.290174" lon="6.674425">
        <time>2008-01-28T09:13:22Z</time>
      </trkpt>
      <trkpt lat="50.290248" lon="6.674117">
        <ele>465.000000</ele>
        <time>2008-01-28T09:13:22Z</time>
      </trkpt>
      <trkpt lat="50.290248" lon="6.674117">
        <time>2008-01-28T09:13:22Z</time>
      </trkpt>
      <trkpt lat="50.290179" lon="6.673639">
        <time>2008-01-28T09:13:22Z</time>
      </trkpt>
      <trkpt lat="50.290154" lon="6.673218">
        <ele>453.000000</ele>
        <time>2008-01-28T09:13:22Z</time>
      </trkpt>
      <trkpt lat="50.290154" lon="6.673218">
        <time>2008-01-28T09:13:22Z</time>
      </trkpt>
      <trkpt lat="50.290434" lon="6.673067">
        <time>2008-01-28T09:13:22Z</time>
      </trkpt>
      <trkpt lat="50.290596" lon="6.672986">
        <time>2008-01-28T09:13:22Z</time>
      </trkpt>
      <trkpt lat="50.290849" lon="6.672835">
        <time>2008-01-28T09:13:22Z</time>
      </trkpt>
      <trkpt lat="50.291084" lon="6.672572">
        <time>2008-01-28T09:13:22Z</time>
      </trkpt>
      <trkpt lat="50.291283" lon="6.672294">
        <time>2008-01-28T09:13:22Z</time>
      </trkpt>
      <trkpt lat="50.291510" lon="6.671890">
        <ele>451.000000</ele>
        <time>2008-01-28T09:13:22Z</time>
      </trkpt>
    </trkseg>
  </trk>

</gpx>
